Regional Weather Roundup
Issued by NWS Midland/Odessa, TX

Home | Current Version | Previous Version | Text Only | Print | Product List | Glossary On
Versions: 1 2 3 4 5 6 7 8 9 10 11 12 13 14 15 16 17 18 19 20 21 22 23 24 25 26 27 28 29 30 31 32 33 34 35 36 37 38 39 40 41 42 43 44 45 46 47 48 49 50
405
ASUS44 KMAF 271210
RWRMAF
MIDLAND AREA WEATHER ROUNDUP
NATIONAL WEATHER SERVICE MIDLAND TX
700 AM CDT TUE SEP 27 2016

...IN SOUTHWEST TEXAS AND SOUTHEAST NEW MEXICO...

CITY           SKY/WX    TMP DP  RH WIND       PRES   REMARKS
ALPINE         PTCLDY    49  48  97 CALM      30.34R
ANDREWS        NOT AVBL
ARTESIA        MOCLDY    54  54 100 CALM      30.26S
BIG SPRING     CLOUDY    58  54  87 CALM      30.25S
CARLSBAD       CLOUDY    50  49  96 SW3       30.24S
DRYDEN           N/A     59  50  72 N12       30.19S
FORT STOCKTON  CLOUDY    53  50  89 CALM      30.25F
GUAD PASS      CLOUDY    47  39  74 NE20      30.29S WCI  40
HOBBS          PTCLDY    54  54 100 W6        30.26S
MARFA          CLOUDY   N/A N/A N/A CALM      30.29S
MIDLAND AIRPK  CLOUDY    57  51  79 W6        30.24F
MIDLAND INTL   CLOUDY    56  51  84 W5        30.23F
ODESSA         CLOUDY    56  52  86 W5        30.25S
PECOS          CLOUDY    56  51  83 CALM        N/A
PRESIDIO       CLOUDY    58  53  83 CALM      30.23R
SEMINOLE       MOCLDY    57  52  84 CALM      30.25F
SNYDER           N/A     57  50  76 CALM      30.23R
WINK           CLOUDY    56  53  90 CALM      30.23S
$$
...OTHER STATIONS IN TEXAS...

CITY           SKY/WX    TMP DP  RH WIND       PRES   REMARKS
ABILENE        CLOUDY    59  56  89 CALM      30.19S
AMARILLO       CLOUDY    48  38  68 W6        30.24F
AUSTIN         CLOUDY    69  63  81 N9        30.07S
BROWNSVILLE    MOCLDY    76  74  93 NW6       29.95R
CORPUS CHRISTI CLOUDY    71  68  90 N14       30.00R
DALLAS FTW     MOCLDY    65  56  72 N7        30.11R
DEL RIO        LGT RAIN  65  59  81 NW13      30.13S
EL PASO        CLOUDY    57  43  59 E3        30.25R
HOUSTON INT    MOCLDY    71  68  90 N9        30.01S
LUBBOCK        MOCLDY    50  44  80 NW6       30.23F
SAN ANGELO     CLOUDY    63  50  62 NW9       30.19R
SAN ANTONIO    CLOUDY    67  62  84 N10       30.07F
WACO           CLOUDY    67  62  84 N6        30.10S
WICHITA FALLS  NOT AVBL
$$
...OTHER LOCATIONS IN NEW MEXICO...

CITY           SKY/WX    TMP DP  RH WIND       PRES   REMARKS
ALAMAGORDO     CLOUDY    52  52 100 N3          N/A
ALBUQUERQUE    CLOUDY    52  35  52 N10       30.30F
CANNON AFB     CLEAR     52  42  67 NW6       30.26F
CLOVIS         CLEAR     46  37  71 NW7       30.26F
HOLLOMAN AFB   CLEAR     52  52 100 E3        30.26R
ROSWELL        CLOUDY    55  48  77 CALM      30.25S
RUIDOSO        CLOUDY    45  34  65 SW7       30.37S
SANTA FE       CLEAR     43  34  70 N10       30.35F WCI  37
TRUTH OR CONSE CLOUDY    55  53  93 CALM      30.28R
TUCUMCARI      CLEAR     46  37  71 SW5       30.25S
$$




USA.gov is the U.S. government's official web portal to all federal, state and local government web resources and services.